Simultaneous Nadir Overpasses (SNOs) Predictions

Prediction of SNOs between METOP-A and NOAA-19 Satellite Orbit:

Table of predicted SNOs for the next 14.0 days since TLE Epoch: 12/25/2015
Index Date (METOP-A) Time (METOP-A) Lat,Lon (METOP-A) SZA (METOP-A ) Date (NOAA-19) Time (NOAA-19) Lat,Lon (NOAA-19) SZA (NOAA-19 ) Distance(km) Time Diff (sec)
1 01/02/2016 13:15:00 -76.07, 161.38 81.08 01/02/2016 13:13:52 -76.08, 158.53 81.04 76.10 68
2 01/02/2016 14:05:49 75.65, -32.68 98.50 01/02/2016 14:04:39 75.64, -32.69 98.50 0.58 70
3 01/02/2016 14:56:31 -75.63, 134.60 81.52 01/02/2016 14:55:44 -75.61, 134.64 81.53 2.26 47
4 01/02/2016 15:47:11 75.63, -58.07 98.48 01/02/2016 15:46:41 75.63, -58.15 98.48 2.04 30
5 01/02/2016 16:37:53 -75.61, 109.21 81.54 01/02/2016 16:37:46 -75.60, 109.17 81.56 1.77 7
6
